COSMOS 2251 DEB, 35824

Orbit data source: Space-Track

COSMOS 2251 DEB, 35824 is space debris in LEO originally from a launch on Wed, 16 Jun 1993 UTC launched from the Plesetsk Missile And Space Complex (PKMTR). The debris from Iridium 33, an American commercial communications satellite, has been tracked extensively since its accidental collision with the defunct Russian satellite Cosmos 2251 in 2009. This event, occurring at high speed in low Earth orbit (LEO), generated thousands of pieces of space debris, significantly increasing the risk of further collisions. The Iridium 33 debris cloud has impacted space traffic management and orbital debris mitigation strategies, making it a subject of ongoing study in space situational awareness.

Loading next visibility...
Identifier
35824, 1993-036ASW
Orbit
LEO
Country
Flag of CISCIS
Related business
Manufacturer
Unknown
Mission
Spacecraft
Bus & Motor
Unknown
Mass
Unknown
Launch date (UTC)
1993-06-16 (33 years ago)
Launch vehicle
Unknown
Launch site
Plesetsk Missile And Space Complex (PKMTR)
Object type
Payload
Rocket body
Debris
Shape & HBR
Unknown shape, 0.1 m
Radar Cross Section
Small (<0.1 m²)

Expand to show TLE details & history
Last TLE update: 3 days ago

TLE from 3 days ago
0 COSMOS 2251 DEB
1 35824U 93036ASW 25351.84219459  .00001204  00000-0  79958-3 0  9999
2 35824  73.8461  40.0198 0248182 125.2294 237.2340 13.88437103842985
Epoch: 2025-12-17T20:12Z
TLE epoch observation values (Epoch: 2025-12-17T20:12:45.612Z)
Latitude
Longitude
10.1235°
Altitude
1,038.014 km
Speed
7.282 km/s
True Right ascension
02h 40m 04s
True Declination
0° 00' 00"
Sunlit
Object was in full shadow at epoch
Visualization orbit readout
Latitude
Unknown
Longitude
Unknown
Altitude
Unknown
Speed
Unknown
Apparent Right ascension
Unknown
Apparent Declination
Unknown
Sunlit
N/A
Visualization observer readout
Local Sidereal Time
07:38:54
Azimuth
Unknown
Elevation
Unknown
Doppler factor
Unknown
Orbital elements
Apogee altitude
1,113.223 km
Perigee altitude
750.384 km
Semi-major axis
7,309.941 km
Eccentricity
0.02482
Inclination
73.8461°
RAAN
40.0198°
Arg. of periapsis
125.2294°
True anomaly
234.88272°
Mean anomaly
237.234°
Eccentric anomaly
236.05437°
Mean motion
3.47274 °/min
Orbital period
103.66 mins
BSTAR
0.00079958
Loading maneuver chart data...
Computing Atmospheric mass density...

Documentation

Showing up to 5 results
|